Content
SEND FEEDBACK

Daily
Averages
Monthly
Summary
United States of America

STANLEY, NORTH DAKOTA


Home > North America > United States > North Dakota
Elevation: 2295 feet     Latitude: 48 21N     Longitude: 102 25W

WEATHER
 
SELECT A DAY
Number of Records: 82,900;   Date Range: 12/7/10 - 9/17/14
 
SHARE

PRINT THIS DATA

[ ← Previous Day ]
WEATHER ALMANAC - MARCH 13, 2014
[ Next Day → ]
[ °C ]   °F
Weather ElementAverageHighLow
Temperature38.2 °F46.4 °F (1:15 pm)32 °F (12:55 am)
Dewpoint31.4 °F33.8 °F (2:15 pm)28.4 °F (5:55 pm)
Humidity77.8 %100 % (12:55 am)57 % (1:15 pm)
Barometer29.65 in29.82 in (12:35 am)29.56 in (11:55 am)
Wind Speed16.3 mph25.3 mph (1:55 pm)
Wind Gust35.7 mph (3:55 pm)
Weather ElementAverage
Visibility10 mi
Wind DirectionWNW (286.5 °)

Weather ElementTotal
Precipitation---
Heating Degree Days25.8 (Base 65)
Averaged from 71 records on March 13, 2014
WEATHER CONDITIONS BREAKOUT
WIND DIRECTION BREAKOUT
WEATHER BY HOUR - MARCH 13, 2014
[ °C ]   °F
Local TimeTemperatureDewpointHumidityBarometerVisibilityWind DirectionWind SpeedGust SpeedPrecipitationEventsConditions
12:35 AM33.8 °F32.0 °F93 %29.82 in10.0 miWest (270°)11.5 mphClear
12:55 AM32.0 °F32.0 °F100 %29.81 in10.0 miWest (260°)11.5 mphClear
1:15 AM35.6 °F32.0 °F87 %29.80 in10.0 miWest (260°)12.7 mphClear
1:35 AM35.6 °F32.0 °F87 %29.80 in10.0 miWest (270°)10.4 mphClear
1:55 AM35.6 °F32.0 °F87 %29.78 in10.0 miWest (270°)11.5 mphClear
2:15 AM35.6 °F32.0 °F87 %29.78 in10.0 miWest (260°)11.5 mphClear
2:35 AM35.6 °F32.0 °F87 %29.77 in10.0 miWest (270°)13.8 mphClear
2:55 AM35.6 °F32.0 °F87 %29.76 in10.0 miWest (270°)12.7 mphClear
3:15 AM35.6 °F32.0 °F87 %29.75 in10.0 miWest (270°)11.5 mphClear
3:35 AM35.6 °F32.0 °F87 %29.74 in10.0 miWest (270°)12.7 mphClear
3:55 AM35.6 °F32.0 °F87 %29.73 in10.0 miWest (280°)9.2 mphClear
4:15 AM35.6 °F32.0 °F87 %29.71 in10.0 miWSW (250°)16.1 mphClear
4:35 AM35.6 °F32.0 °F87 %29.70 in10.0 miWSW (250°)13.8 mphClear
4:55 AM35.6 °F32.0 °F87 %29.69 in10.0 miWest (270°)9.2 mphClear
5:15 AM35.6 °F32.0 °F87 %29.69 in10.0 miWest (270°)12.7 mphClear
5:35 AM35.6 °F32.0 °F87 %29.68 in10.0 miWest (260°)12.7 mphClear
5:55 AM35.6 °F32.0 °F87 %29.67 in10.0 miWSW (250°)10.4 mphClear
6:15 AM35.6 °F30.2 °F81 %29.66 in10.0 miWSW (240°)10.4 mphClear
6:35 AM32.0 °F30.2 °F93 %29.66 in10.0 miWSW (250°)10.4 mphClear
6:55 AM32.0 °F30.2 °F93 %29.65 in10.0 miWSW (250°)9.2 mphClear
7:15 AM32.0 °F30.2 °F93 %29.64 in10.0 miWest (280°)4.6 mphClear
7:35 AM32.0 °F30.2 °F93 %29.64 in10.0 miWest (260°)5.8 mphClear
7:55 AM33.8 °F30.2 °F87 %29.63 in10.0 miWest (260°)10.4 mphClear
8:15 AM32.0 °F30.2 °F93 %29.62 in10.0 miWest (260°)15.0 mphClear
8:35 AM35.6 °F30.2 °F81 %29.61 in10.0 miWest (260°)16.1 mphClear
8:55 AM35.6 °F30.2 °F81 %29.60 in10.0 miWest (270°)16.1 mph21.9 mphClear
9:15 AM37.4 °F30.2 °F75 %29.60 in10.0 miWest (270°)13.8 mph21.9 mphClear
9:35 AM37.4 °F30.2 °F75 %29.59 in10.0 miWest (270°)15.0 mph19.6 mphClear
9:55 AM39.2 °F32.0 °F75 %29.59 in10.0 miWest (280°)12.7 mph19.6 mphClear
10:15 AM39.2 °F32.0 °F75 %29.58 in10.0 miWest (270°)17.3 mph24.2 mphClear
10:35 AM41.0 °F32.0 °F70 %29.58 in10.0 miWest (280°)16.1 mph21.9 mphClear
10:55 AM41.0 °F32.0 °F70 %29.57 in10.0 miWest (260°)18.4 mph23.0 mphClear
11:15 AM42.8 °F32.0 °F66 %29.58 in10.0 miWest (260°)17.3 mph25.3 mphClear
11:35 AM42.8 °F32.0 °F66 %29.57 in10.0 miWest (280°)17.3 mph27.6 mphClear
11:55 AM44.6 °F32.0 °F61 %29.56 in10.0 miWest (280°)16.1 mph27.6 mphClear
12:15 PM44.6 °F32.0 °F61 %29.57 in10.0 miWNW (290°)23.0 mph31.1 mphClear
12:35 PM44.6 °F32.0 °F61 %29.56 in10.0 miWNW (290°)17.3 mph27.6 mphClear
12:55 PM44.6 °F32.0 °F61 %29.56 in10.0 miWNW (290°)19.6 mph27.6 mphClear
1:15 PM46.4 °F32.0 °F57 %29.56 in10.0 miWNW (290°)23.0 mph29.9 mphClear
1:35 PM46.4 °F32.0 °F57 %29.57 in10.0 miWNW (290°)21.9 mph32.2 mphClear
1:55 PM46.4 °F32.0 °F57 %29.58 in10.0 miWNW (300°)25.3 mph29.9 mphClear
2:15 PM46.4 °F33.8 °F62 %29.57 in10.0 miWNW (300°)21.9 mph31.1 mphClear
2:35 PM46.4 °F32.0 °F57 %29.58 in10.0 miWNW (300°)23.0 mph29.9 mphClear
2:55 PM46.4 °F32.0 °F57 %29.59 in10.0 miNW (310°)19.6 mph28.8 mphClear
3:15 PM46.4 °F33.8 °F62 %29.58 in10.0 miNW (310°)20.7 mph29.9 mphClear
3:35 PM44.6 °F32.0 °F61 %29.60 in10.0 miNW (320°)20.7 mph29.9 mphClear
3:55 PM44.6 °F32.0 °F61 %29.60 in10.0 miNW (320°)20.7 mph35.7 mphClear
4:15 PM42.8 °F32.0 °F66 %29.60 in10.0 miNW (310°)21.9 mph27.6 mphClear
4:35 PM42.8 °F33.8 °F70 %29.61 in10.0 miNW (320°)18.4 mph24.2 mphClear
4:55 PM42.8 °F32.0 °F66 %29.63 in10.0 miNNW (330°)18.4 mph27.6 mphScattered Clouds
5:15 PM41.0 °F32.0 °F70 %29.64 in10.0 miNW (320°)18.4 mph28.8 mphMostly Cloudy
5:35 PM42.8 °F30.2 °F61 %29.64 in10.0 miNW (310°)24.2 mph31.1 mphMostly Cloudy
5:55 PM41.0 °F28.4 °F61 %29.63 in10.0 miNW (320°)21.9 mph32.2 mphMostly Cloudy
6:15 PM41.0 °F28.4 °F61 %29.64 in10.0 miNW (320°)18.4 mph31.1 mphOvercast
6:35 PM41.0 °F28.4 °F61 %29.64 in10.0 miNW (320°)19.6 mph31.1 mphPartly Cloudy
6:55 PM39.2 °F28.4 °F65 %29.65 in10.0 miNW (320°)15.0 mph24.2 mphClear
7:15 PM39.2 °F28.4 °F65 %29.65 in10.0 miNW (310°)19.6 mph27.6 mphClear
7:35 PM37.4 °F28.4 °F70 %29.66 in10.0 miWNW (300°)18.4 mph21.9 mphClear
7:55 PM35.6 °F30.2 °F81 %29.66 in10.0 miWNW (300°)18.4 mph24.2 mphClear
8:15 PM35.6 °F30.2 °F81 %29.66 in10.0 miNW (310°)21.9 mph32.2 mphClear
8:35 PM35.6 °F32.0 °F87 %29.67 in10.0 miNW (310°)24.2 mph32.2 mphMostly Cloudy
8:55 PM35.6 °F32.0 °F87 %29.68 in10.0 miNW (310°)18.4 mph29.9 mphOvercast
9:15 PM35.6 °F32.0 °F87 %29.69 in10.0 miWNW (300°)18.4 mph26.5 mphOvercast
9:35 PM33.8 °F32.0 °F93 %29.69 in10.0 miNW (310°)13.8 mph26.5 mphMostly Cloudy
9:55 PM33.8 °F32.0 °F93 %29.69 in10.0 miNW (310°)17.3 mph29.9 mphOvercast
10:15 PM33.8 °F32.0 °F93 %29.69 in10.0 miNW (310°)20.7 mph32.2 mphOvercast
10:35 PM33.8 °F32.0 °F93 %29.69 in10.0 miNW (310°)18.4 mph32.2 mphOvercast
10:55 PM33.8 °F32.0 °F93 %29.69 in10.0 miWNW (300°)18.4 mph31.1 mphOvercast
11:15 PM33.8 °F32.0 °F93 %29.69 in10.0 miWNW (300°)19.6 mph29.9 mphOvercast
11:35 PM33.8 °F32.0 °F93 %29.70 in10.0 miWNW (300°)18.4 mph28.8 mphOvercast
11:55 PM33.8 °F32.0 °F93 %29.70 in10.0 miWNW (300°)16.1 mph24.2 mphOvercast
Hourly data recorded from K08D, located miles away from Stanley, North Dakota







STORIES FROM OUR PARTNERS